When you browse on this site, cookies collect data to enhance your experience and personalize the content and advertising you see.
Visit our Privacy Policy to learn more. By continuing to use the site, you agree to this use of cookies and data.
  • en France
  • Liste des pays
  • À 7 jours
  • Température de l'eau
  • Carte satellitaire
  • Carte météo
  • Widgets météo
  • user-avatar
    Se connecter

    Météo par heure à La Paz

    Ce jour, 27 Mai, Lundi

    Heure Température Précipitation Vent Pression Humidité
    00:00 +5°C° 0 mm 1 m/s 472 mmHg 68%
    01:00 +4°C° 0 mm 2 m/s 472 mmHg 61%
    02:00 +3°C° 0 mm 2 m/s 471 mmHg 62%
    03:00 +3°C° 0 mm 2 m/s 471 mmHg 63%
    04:00 +2°C° 0 mm 3 m/s 471 mmHg 64%
    05:00 +2°C° 0 mm 3 m/s 472 mmHg 65%
    06:00 +3°C° 0 mm 3 m/s 472 mmHg 65%
    07:00 +4°C° 0 mm 3 m/s 473 mmHg 65%
    08:00 +6°C° 0 mm 4 m/s 474 mmHg 56%
    09:00 +8°C° 0 mm 4 m/s 476 mmHg 46%
    10:00 +11°C° 0 mm 4 m/s 477 mmHg 36%
    11:00 +12°C° 0.1 mm 5 m/s 477 mmHg 35%
    12:00 +13°C° 0.1 mm 5 m/s 477 mmHg 33%
    13:00 +13°C° 0.1 mm 6 m/s 477 mmHg 32%
    14:00 +13°C° 0.2 mm 5 m/s 476 mmHg 33%
    15:00 +12°C° 0.2 mm 4 m/s 476 mmHg 34%
    16:00 +11°C° 0.2 mm 4 m/s 475 mmHg 35%
    17:00 +9°C° 0.2 mm 3 m/s 474 mmHg 47%
    18:00 +7°C° 0.2 mm 2 m/s 473 mmHg 59%
    19:00 +5°C° 0.2 mm 2 m/s 473 mmHg 71%
    20:00 +6°C° 0 mm 1 m/s 473 mmHg 73%
    21:00 +5°C° 0 mm 1 m/s 472 mmHg 76%
    22:00 +5°C° 0 mm 1 m/s 472 mmHg 78%
    23:00 +4°C° 0 mm 1 m/s 472 mmHg 70%

    Demain, 28 Mai, Mardi

    Heure Température Précipitation Vent Pression Humidité
    00:00 +4°C° 0 mm 1 m/s 472 mmHg 63%
    01:00 +3°C° 0 mm 1 m/s 471 mmHg 56%
    02:00 +3°C° 0 mm 1 m/s 471 mmHg 48%
    03:00 +2°C° 0 mm 2 m/s 471 mmHg 41%
    04:00 +2°C° 0 mm 2 m/s 471 mmHg 33%
    05:00 +3°C° 0 mm 2 m/s 472 mmHg 35%
    06:00 +4°C° 0 mm 2 m/s 473 mmHg 37%
    07:00 +6°C° 0 mm 2 m/s 474 mmHg 38%
    08:00 +8°C° 0 mm 2 m/s 476 mmHg 35%
    09:00 +10°C° 0 mm 2 m/s 477 mmHg 32%
    10:00 +13°C° 0 mm 2 m/s 478 mmHg 29%
    11:00 +13°C° 0 mm 2 m/s 478 mmHg 30%
    12:00 +13°C° 0 mm 3 m/s 477 mmHg 31%
    13:00 +13°C° 0 mm 3 m/s 477 mmHg 33%
    14:00 +13°C° 0.2 mm 3 m/s 477 mmHg 35%
    15:00 +13°C° 0.2 mm 2 m/s 476 mmHg 37%
    16:00 +12°C° 0.2 mm 2 m/s 475 mmHg 40%
    17:00 +10°C° 0 mm 2 m/s 475 mmHg 53%
    18:00 +8°C° 0 mm 2 m/s 474 mmHg 66%
    19:00 +5°C° 0 mm 3 m/s 473 mmHg 79%
    20:00 +6°C° 0 mm 2 m/s 473 mmHg 82%
    21:00 +5°C° 0 mm 2 m/s 473 mmHg 85%
    22:00 +6°C° 0 mm 1 m/s 473 mmHg 87%
    23:00 +5°C° 0 mm 1 m/s 473 mmHg 87%

    Après-demain, 29 Mai, Mercredi

    Heure Température Précipitation Vent Pression Humidité
    00:00 +5°C° 0 mm 1 m/s 472 mmHg 86%
    01:00 +4°C° 0 mm 1 m/s 472 mmHg 85%
    02:00 +4°C° 0 mm 1 m/s 471 mmHg 84%
    03:00 +3°C° 0 mm 1 m/s 471 mmHg 82%
    04:00 +3°C° 0 mm 1 m/s 471 mmHg 80%
    05:00 +4°C° 0 mm 1 m/s 472 mmHg 73%
    06:00 +6°C° 0 mm 1 m/s 473 mmHg 65%
    07:00 +7°C° 0 mm 1 m/s 475 mmHg 58%
    08:00 +8°C° 0 mm 2 m/s 476 mmHg 53%
    09:00 +10°C° 0 mm 2 m/s 477 mmHg 48%
    10:00 +12°C° 0 mm 2 m/s 478 mmHg 42%
    11:00 +13°C° 0.4 mm 2 m/s 478 mmHg 43%
    12:00 +12°C° 0.4 mm 3 m/s 477 mmHg 44%
    13:00 +13°C° 0.4 mm 3 m/s 477 mmHg 45%
    14:00 +12°C° 0.4 mm 3 m/s 476 mmHg 45%
    15:00 +13°C° 0.4 mm 2 m/s 476 mmHg 45%
    16:00 +13°C° 0.4 mm 2 m/s 475 mmHg 45%
    17:00 +10°C° 0 mm 2 m/s 475 mmHg 56%
    18:00 +8°C° 0 mm 2 m/s 474 mmHg 68%
    19:00 +7°C° 0 mm 2 m/s 474 mmHg 79%
    20:00 +6°C° 0 mm 2 m/s 473 mmHg 81%
    21:00 +7°C° 0 mm 1 m/s 473 mmHg 82%
    22:00 +6°C° 0 mm 1 m/s 473 mmHg 84%
    23:00 +6°C° 0 mm 1 m/s 473 mmHg 79%

    30 Mai, Jeudi

    Heure Température Précipitation Vent Pression Humidité
    00:00 +4°C° 0 mm 2 m/s 472 mmHg 74%
    01:00 +4°C° 0 mm 2 m/s 472 mmHg 69%
    02:00 +4°C° 0 mm 2 m/s 472 mmHg 68%
    03:00 +3°C° 0 mm 2 m/s 471 mmHg 67%
    04:00 +3°C° 0 mm 2 m/s 471 mmHg 65%
    05:00 +4°C° 0 mm 2 m/s 472 mmHg 62%
    06:00 +5°C° 0 mm 2 m/s 473 mmHg 58%
    07:00 +6°C° 0 mm 2 m/s 475 mmHg 54%
    08:00 +8°C° 0 mm 2 m/s 476 mmHg 47%
    09:00 +10°C° 0 mm 2 m/s 477 mmHg 39%
    10:00 +13°C° 0 mm 2 m/s 478 mmHg 32%
    11:00 +14°C° 0.1 mm 2 m/s 478 mmHg 32%
    12:00 +15°C° 0.1 mm 2 m/s 478 mmHg 32%
    13:00 +14°C° 0.1 mm 3 m/s 477 mmHg 32%
    14:00 +15°C° 0.1 mm 2 m/s 477 mmHg 32%
    15:00 +14°C° 0.1 mm 2 m/s 476 mmHg 32%
    16:00 +14°C° 0.1 mm 2 m/s 476 mmHg 31%
    17:00 +10°C° 0 mm 2 m/s 475 mmHg 40%
    18:00 +9°C° 0 mm 1 m/s 473 mmHg 48%
    19:00 +7°C° 0 mm 1 m/s 472 mmHg 56%
    20:00 +6°C° 0 mm 1 m/s 472 mmHg 50%
    21:00 +6°C° 0 mm 1 m/s 472 mmHg 43%
    22:00 +5°C° 0 mm 2 m/s 472 mmHg 37%
    23:00 +4°C° 0 mm 2 m/s 472 mmHg 31%

    31 Mai, Vendredi

    Heure Température Précipitation Vent Pression Humidité
    00:00 +4°C° 0 mm 2 m/s 471 mmHg 26%
    01:00 +4°C° 0 mm 1 m/s 471 mmHg 21%
    02:00 +4°C° 0 mm 1 m/s 470 mmHg 22%
    03:00 +3°C° 0 mm 1 m/s 470 mmHg 22%
    04:00 +3°C° 0 mm 1 m/s 469 mmHg 23%
    05:00 +3°C° 0 mm 2 m/s 471 mmHg 24%
    06:00 +5°C° 0 mm 2 m/s 472 mmHg 24%
    07:00 +6°C° 0 mm 2 m/s 474 mmHg 25%
    08:00 +8°C° 0 mm 2 m/s 475 mmHg 23%
    09:00 +10°C° 0 mm 2 m/s 476 mmHg 22%
    10:00 +13°C° 0 mm 2 m/s 477 mmHg 20%
    11:00 +14°C° 0 mm 2 m/s 477 mmHg 23%
    12:00 +14°C° 0 mm 2 m/s 477 mmHg 26%
    13:00 +14°C° 0 mm 3 m/s 477 mmHg 29%
    14:00 +13°C° 0.1 mm 3 m/s 476 mmHg 32%
    15:00 +14°C° 0.1 mm 2 m/s 475 mmHg 35%
    16:00 +13°C° 0.1 mm 2 m/s 475 mmHg 38%
    17:00 +10°C° 0 mm 2 m/s 474 mmHg 52%
    18:00 +8°C° 0 mm 3 m/s 473 mmHg 67%
    19:00 +7°C° 0 mm 3 m/s 473 mmHg 81%
    20:00 +6°C° 0 mm 2 m/s 472 mmHg 83%
    21:00 +6°C° 0 mm 1 m/s 472 mmHg 85%
    22:00 +6°C° 0 mm 1 m/s 472 mmHg 87%
    23:00 +5°C° 0 mm 1 m/s 472 mmHg 83%

    1 Juin, Samedi

    Heure Température Précipitation Vent Pression Humidité
    00:00 +5°C° 0 mm 1 m/s 471 mmHg 78%
    01:00 +4°C° 0 mm 2 m/s 471 mmHg 74%
    02:00 +3°C° 0 mm 2 m/s 471 mmHg 75%
    03:00 +3°C° 0 mm 2 m/s 470 mmHg 75%
    04:00 +3°C° 0 mm 2 m/s 470 mmHg 75%
    05:00 +3°C° 0 mm 2 m/s 471 mmHg 71%
    06:00 +4°C° 0 mm 2 m/s 472 mmHg 67%
    07:00 +5°C° 0 mm 2 m/s 473 mmHg 63%
    08:00 +7°C° 0 mm 3 m/s 474 mmHg 52%
    09:00 +9°C° 0 mm 3 m/s 475 mmHg 41%
    10:00 +11°C° 0 mm 3 m/s 476 mmHg 30%
    11:00 +12°C° 0 mm 3 m/s 476 mmHg 28%
    12:00 +13°C° 0 mm 4 m/s 476 mmHg 26%
    13:00 +13°C° 0 mm 4 m/s 476 mmHg 24%
    14:00 +13°C° 0 mm 4 m/s 475 mmHg 25%
    15:00 +12°C° 0 mm 3 m/s 475 mmHg 25%
    16:00 +12°C° 0 mm 3 m/s 474 mmHg 25%
    17:00 +9°C° 0 mm 2 m/s 473 mmHg 37%
    18:00 +7°C° 0 mm 2 m/s 472 mmHg 49%
    19:00 +6°C° 0 mm 1 m/s 471 mmHg 62%
    20:00 +5°C° 0 mm 1 m/s 471 mmHg 65%
    21:00 +4°C° 0 mm 1 m/s 471 mmHg 68%
    22:00 +4°C° 0 mm 1 m/s 470 mmHg 71%
    23:00 +3°C° 0 mm 1 m/s 470 mmHg 66%
    Voir plus